[[{"header":{"parameterUnit":"m.s-1","parameterCategory":1,"la1":30.2991,"la2":30.254,"lo1":-89.0895,"lo2":-89.0444,"dy":0.0017,"dx":0.0017,"nx":28,"ny":28,"refTime":"2026-01-11T09:00:00:Z","depth":0,"parameterNumber":2,"parameterNumberName":"U-component_of_WINDS"},"data":[0,0,0,0,0,0,0,0,0,0,0,0,0,0,0,0,0,0,0,0,0,0,0,0,0,0,0,0,0,0,0,0,0,0,0,0,0,0,0,0,0,0,0,0,0,0,0,0,0,0,0,0,0,0,0,0,0,0,-3.28,-3.2801,0,-3.2844,-3.2844,-3.2845,-3.2775,-3.2772,-3.277,-3.2767,-3.2813,-3.2817,-3.282,0,0,0,0,0,0,0,0,0,0,0,0,0,-3.2656,-3.2659,-3.28,-3.2801,-3.2801,-3.2844,-3.2845,-3.2845,-3.2775,-3.2772,-3.2769,-3.2766,-3.2812,-3.2816,-3.2821,0,0,0,0,0,0,0,0,0,0,0,0,0,-3.2711,-3.266,-3.28,-3.2771,-3.2769,-3.2844,-3.2845,-3.2845,-3.2776,-3.2772,-3.2768,-3.2765,-3.2811,-3.2816,-3.2821,-3.2926,0,0,-3.2837,-3.2839,0,0,0,0,0,0,0,0,-3.2708,-3.2716,-3.2775,-3.2773,-3.2771,-3.28,-3.281,-3.2872,-3.2777,-3.2773,-3.2767,-3.2763,-3.2812,-3.2817,-3.2833,-3.2928,-3.293,-3.2838,-3.2841,-3.2843,-3.2844,0,0,0,0,0,0,0,-3.2704,-3.2714,-3.2817,-3.2776,-3.2774,-3.2756,-3.276,-3.2822,-3.2813,-3.2773,-3.2768,-3.2774,-3.281,-3.2828,-3.2834,-3.2931,-3.2837,-3.2842,-3.2845,-3.2847,-3.3114,-3.3118,0,0,0,0,0,0,-3.2704,-3.2711,-3.2816,-3.2819,-3.273,-3.2762,-3.2766,-3.2794,-3.2812,-3.2811,-3.2777,-3.2771,-3.2821,-3.2828,-3.2835,-3.2959,-3.2843,-3.2848,-3.2851,-3.3111,-3.3115,-3.312,0,0,0,0,0,0,-3.2701,-3.2714,-3.2814,-3.2764,-3.2775,-3.2768,-3.2801,-3.2797,-3.2815,-3.2815,-3.2813,-3.2798,-3.2819,-3.2828,-3.2904,-3.296,-3.285,-3.2855,-3.3106,-3.3112,-3.3118,-3.3209,0,0,0,0,0,0,-3.2697,-3.2713,-3.2753,-3.2765,-3.2778,-3.2883,-3.2804,-3.2801,-3.2824,-3.2816,-3.2833,-3.2832,-3.2816,-3.2897,-3.2909,-3.2965,-3.2859,-3.3101,-3.3109,-3.3116,-3.3201,-3.3217,-3.3231,0,0,0,0,0,-3.2692,-3.2777,-3.2755,-3.2768,-3.2828,-3.2886,-3.2893,-3.2873,-3.2829,-3.2869,-3.2869,-3.2832,-3.2952,-3.2905,-3.2919,-3.2977,-3.3097,-3.3106,-3.3115,-3.3194,-3.3214,-3.3231,0,0,0,0,0,0,-3.2772,-3.2778,-3.2754,-3.2845,-3.2866,-3.2874,-3.2924,-3.2895,-3.2928,-3.2919,-3.2892,-3.2897,-3.2979,-3.2985,-3.2933,-3.3079,-3.3017,-3.3029,-3.3072,-3.3091,-3.3106,-3.3103,-3.2863,0,0,0,0,0,-3.28,-3.2847,-3.285,-3.293,-3.2941,-3.2931,-3.2956,-3.2938,-3.2958,-3.2966,-3.2971,-3.2993,-3.3035,-3.3063,-3.3102,-3.3201,-3.3204,-3.3248,-3.3263,-3.3275,-3.3286,-3.3339,-3.3359,-3.3149,-3.3149,-3.3149,0,0,-3.2859,-3.2868,-3.2899,-3.2946,-3.296,-3.3009,-3.2939,-3.2994,-3.303,-3.2975,-3.3047,-3.3052,-3.3073,-3.3161,-3.32,-3.3169,-3.3345,-3.3287,-3.3297,-3.3301,-3.335,-3.337,-3.3388,-3.3155,-3.3154,-3.3153,0,0,-3.2991,-3.3003,-3.3071,-3.3086,-3.3107,-3.31,-3.3116,-3.3129,-3.313,-3.3202,-3.3162,-3.3204,-3.3278,-3.3295,-3.3313,-3.3452,-3.3419,-3.3465,-3.3545,-3.3596,-3.3613,-3.3627,-3.3677,-3.3695,-3.3476,-3.3476,-3.3476,0,-3.3062,-3.3134,-3.311,-3.3168,-3.3189,-3.3141,-3.321,-3.3226,-3.3259,-3.3276,-3.324,-3.3331,-3.3342,-3.3434,-3.3468,-3.3484,-3.3502,-3.3463,-3.3612,-3.3627,-3.364,-3.3687,-3.3706,-3.3482,-3.3481,-3.348,-3.348,0,-3.322,-3.327,-3.3323,-3.3356,-3.3384,-3.3447,-3.3432,-3.3463,-3.3443,-3.344,-3.3514,-3.3525,-3.3566,-3.3586,-3.3567,-3.3675,-3.3655,-3.3617,-3.3554,-3.3666,-3.371,-3.3728,-3.3489,-3.3487,-3.3486,-3.3484,0,0,-3.3404,-3.3422,-3.3442,-3.3457,-3.3477,-3.3515,-3.3576,-3.3615,-3.3643,-3.3667,-3.3718,-3.3781,-3.3745,-3.3766,-3.3748,-3.3794,-3.3903,-3.375,-3.375,-3.3778,-3.4023,-3.4052,-3.4074,-3.3882,-3.3885,-3.3888,-3.4021,0,-3.3536,-3.3641,-3.3621,-3.3723,-3.377,-3.3725,-3.3778,-3.3796,-3.3794,-3.3833,-3.3831,-3.3877,-3.3826,-3.3838,-3.3881,-3.3881,-3.3952,-3.3871,-3.3929,-3.3931,-3.3925,-3.4096,-3.4128,-3.4253,-3.4038,-3.4041,-3.4043,0,-3.3704,-3.3734,-3.3842,-3.3854,-3.3873,-3.3921,-3.3955,-3.3993,-3.4013,-3.4008,-3.4032,-3.4006,-3.4066,-3.4002,-3.4085,-3.4031,-3.4053,-3.4057,-3.4061,-3.4066,-3.3994,-3.4107,-3.4293,-3.4312,-3.407,-3.4068,-3.4066,0,-3.3828,-3.3896,-3.3969,-3.3982,-3.3999,-3.4034,-3.4042,-3.4058,-3.4083,-3.4113,-3.4128,-3.4165,-3.4186,-3.4215,-3.4199,-3.4154,-3.4286,-3.422,-3.4284,-3.4285,-3.4314,-3.4313,-3.4507,-3.4328,-3.4328,-3.4328,-3.4327,0,-3.3978,-3.4045,-3.4025,-3.407,-3.4144,-3.412,-3.4194,-3.4197,-3.4212,-3.4257,-3.422,-3.4263,-3.4239,-3.4281,-3.4269,-3.434,-3.4349,-3.4348,-3.4344,-3.4351,-3.4352,-3.4366,-3.4357,-3.4333,-3.4332,-3.4331,-3.433,0,-3.4129,-3.4118,-3.4195,-3.4204,-3.4207,-3.4262,-3.427,-3.4312,-3.4307,-3.4364,-3.4376,-3.4369,-3.4415,-3.4402,-3.4453,-3.4445,-3.4535,-3.452,-3.4529,-3.4525,-3.459,-3.4584,-3.4801,-3.4828,-3.4631,-3.4633,-3.4634,0,-3.4226,-3.4276,-3.4291,-3.4318,-3.4329,-3.4374,-3.4399,-3.4377,-3.4405,-3.4431,-3.447,-3.4513,-3.4546,-3.4623,-3.4622,-3.4661,-3.4647,-3.472,-3.4652,-3.4658,-3.4648,-3.4645,-3.465,-3.4734,-3.4736,-3.4738,-3.4739,0,-3.4398,-3.439,-3.4427,-3.4464,-3.4494,-3.4522,-3.4545,-3.457,-3.455,-3.4583,-3.463,-3.4656,-3.4707,-3.4751,-3.4786,-3.4794,-3.4764,-3.476,-3.4777,-3.4786,-3.4789,-3.4788,-3.4566,-3.4756,-3.4754,-3.4753,-3.4752,-3.4751,-3.4525,-3.4568,-3.4585,-3.4628,-3.4644,-3.4667,-3.4707,-3.4707,-3.4745,-3.4785,-3.477,-3.4824,-3.4842,-3.4886,-3.49,-3.4942,-3.4914,-3.4938,-3.4944,-3.4951,-3.4959,-3.4782,-3.4948,-3.4947,-3.4947,-3.4946,-3.4946,0,-3.4696,-3.4704,-3.4744,-3.4779,-3.4812,-3.478,-3.4805,-3.4835,-3.4883,-3.4903,-3.4936,-3.499,-3.5032,-3.5035,-3.5074,-3.5107,-3.5094,-3.5118,-3.5116,-3.5118,-3.4981,-3.4963,-3.5128,-3.5128,-3.5128,-3.5128,-3.5128,-3.5128,-3.4789,-3.486,-3.4854,-3.4933,-3.494,-3.4993,-3.501,-3.5031,-3.5046,-3.5108,-3.5143,-3.5144,-3.5157,-3.5196,-3.5233,-3.5233,-3.5249,-3.5279,-3.5273,-3.5146,-3.5128,-3.5111,-3.5093,-3.5283,-3.5283,-3.5406,-3.5408,-3.5408]},{"header":{"parameterUnit":"m.s-1","parameterCategory":1,"la1":30.2991,"la2":30.254,"lo1":-89.0895,"lo2":-89.0444,"dy":0.0017,"dx":0.0017,"nx":28,"ny":28,"refTime":"2026-01-11T09:00:00:Z","depth":0,"parameterNumber":3,"parameterNumberName":"V-component_of_WINDS"},"data":[0,0,0,0,0,0,0,0,0,0,0,0,0,0,0,0,0,0,0,0,0,0,0,0,0,0,0,0,0,0,0,0,0,0,0,0,0,0,0,0,0,0,0,0,0,0,0,0,0,0,0,0,0,0,0,0,0,0,-4.0321,-4.0322,0,-4.0345,-4.0346,-4.0346,-4.0307,-4.0306,-4.0305,-4.0303,-4.0326,-4.0328,-4.033,0,0,0,0,0,0,0,0,0,0,0,0,0,-4.0239,-4.0241,-4.0321,-4.0322,-4.0322,-4.0345,-4.0346,-4.0346,-4.0308,-4.0306,-4.0304,-4.0303,-4.0325,-4.0328,-4.033,0,0,0,0,0,0,0,0,0,0,0,0,0,-4.027,-4.0241,-4.0321,-4.0306,-4.0304,-4.0345,-4.0346,-4.0346,-4.0308,-4.0306,-4.0304,-4.0302,-4.0325,-4.0327,-4.033,-4.0387,0,0,-4.0339,-4.034,0,0,0,0,0,0,0,0,-4.0268,-4.0273,-4.0307,-4.0307,-4.0305,-4.0321,-4.0325,-4.036,-4.0308,-4.0306,-4.0303,-4.0301,-4.0326,-4.0329,-4.0337,-4.0388,-4.0389,-4.0339,-4.0341,-4.0342,-4.0342,0,0,0,0,0,0,0,-4.0266,-4.0272,-4.0331,-4.0308,-4.0307,-4.0296,-4.0299,-4.0331,-4.0327,-4.0306,-4.0304,-4.0307,-4.0325,-4.0335,-4.0338,-4.0389,-4.0339,-4.0341,-4.0343,-4.0344,-4.0486,-4.0488,0,0,0,0,0,0,-4.0266,-4.027,-4.033,-4.0331,-4.0282,-4.0299,-4.0302,-4.0318,-4.0327,-4.0326,-4.0309,-4.0305,-4.0331,-4.0334,-4.0338,-4.0404,-4.0342,-4.0344,-4.0346,-4.0484,-4.0487,-4.0489,0,0,0,0,0,0,-4.0265,-4.0272,-4.0329,-4.03,-4.0307,-4.0303,-4.0322,-4.032,-4.0329,-4.0328,-4.0327,-4.032,-4.033,-4.0334,-4.0375,-4.0405,-4.0346,-4.0348,-4.0482,-4.0485,-4.0488,-4.0538,0,0,0,0,0,0,-4.0262,-4.0272,-4.0294,-4.0301,-4.0308,-4.0366,-4.0323,-4.0322,-4.0335,-4.033,-4.0338,-4.0338,-4.0328,-4.0371,-4.0378,-4.0407,-4.035,-4.0479,-4.0483,-4.0487,-4.0534,-4.0542,-4.055,0,0,0,0,0,-4.026,-4.0307,-4.0295,-4.0303,-4.0336,-4.0368,-4.0372,-4.0361,-4.0337,-4.0359,-4.0358,-4.0338,-4.0401,-4.0376,-4.0383,-4.0414,-4.0477,-4.0482,-4.0487,-4.053,-4.0541,-4.055,0,0,0,0,0,0,-4.0303,-4.0307,-4.0295,-4.0346,-4.0357,-4.0362,-4.0389,-4.0373,-4.0391,-4.0386,-4.037,-4.0373,-4.0416,-4.0419,-4.0391,-4.0468,-4.0435,-4.0441,-4.0465,-4.0475,-4.0483,-4.0481,-4.0352,0,0,0,0,0,-4.0318,-4.0345,-4.0347,-4.0392,-4.0398,-4.0393,-4.0406,-4.0397,-4.0407,-4.0411,-4.0414,-4.0424,-4.0446,-4.0461,-4.0481,-4.0534,-4.0534,-4.0559,-4.0567,-4.0574,-4.0579,-4.0606,-4.0617,-4.0505,-4.0505,-4.0505,0,0,-4.0351,-4.0356,-4.0374,-4.0401,-4.0408,-4.0435,-4.0397,-4.0427,-4.0446,-4.0416,-4.0454,-4.0456,-4.0467,-4.0514,-4.0534,-4.0517,-4.061,-4.058,-4.0585,-4.0587,-4.0612,-4.0623,-4.0632,-4.0508,-4.0508,-4.0507,0,0,-4.0423,-4.043,-4.0468,-4.0476,-4.0488,-4.0484,-4.0493,-4.05,-4.05,-4.0539,-4.0516,-4.0539,-4.0577,-4.0586,-4.0595,-4.0669,-4.0651,-4.0676,-4.0719,-4.0745,-4.0754,-4.0762,-4.0788,-4.0797,-4.0682,-4.0682,-4.0682,0,-4.0461,-4.0501,-4.0489,-4.0521,-4.0532,-4.0507,-4.0544,-4.0552,-4.057,-4.0579,-4.0559,-4.0607,-4.0612,-4.066,-4.0678,-4.0687,-4.0696,-4.0675,-4.0754,-4.0762,-4.0769,-4.0793,-4.0803,-4.0685,-4.0685,-4.0684,-4.0684,0,-4.0547,-4.0575,-4.0604,-4.0622,-4.0637,-4.0672,-4.0664,-4.068,-4.0669,-4.0667,-4.0706,-4.0711,-4.0732,-4.0743,-4.0732,-4.0789,-4.0778,-4.0757,-4.0722,-4.0783,-4.0805,-4.0814,-4.0689,-4.0688,-4.0687,-4.0687,0,0,-4.0648,-4.0658,-4.0669,-4.0677,-4.0688,-4.0709,-4.0741,-4.0762,-4.0776,-4.0789,-4.0815,-4.0848,-4.0828,-4.0839,-4.0829,-4.0852,-4.091,-4.0828,-4.0828,-4.0842,-4.0971,-4.0987,-4.0998,-4.0898,-4.0899,-4.0901,-4.097,0,-4.0719,-4.0776,-4.0765,-4.082,-4.0846,-4.0821,-4.0849,-4.0858,-4.0857,-4.0877,-4.0875,-4.0899,-4.0871,-4.0877,-4.09,-4.0898,-4.0935,-4.0893,-4.0921,-4.0922,-4.0919,-4.101,-4.1026,-4.1092,-4.0979,-4.0981,-4.0982,0,-4.081,-4.0826,-4.0884,-4.089,-4.09,-4.0926,-4.0943,-4.0964,-4.0973,-4.097,-4.0982,-4.0967,-4.0998,-4.0964,-4.1006,-4.0978,-4.0989,-4.099,-4.0992,-4.0993,-4.0955,-4.1013,-4.1112,-4.1122,-4.0996,-4.0994,-4.0993,0,-4.0876,-4.0913,-4.0952,-4.0959,-4.0968,-4.0986,-4.099,-4.0998,-4.1011,-4.1026,-4.1033,-4.1052,-4.1062,-4.1076,-4.1066,-4.1042,-4.111,-4.1075,-4.1108,-4.1108,-4.1123,-4.1122,-4.1224,-4.1131,-4.1131,-4.113,-4.113,0,-4.0956,-4.0993,-4.0982,-4.1006,-4.1045,-4.1032,-4.1071,-4.1072,-4.1079,-4.1102,-4.1082,-4.1104,-4.109,-4.111,-4.1103,-4.1139,-4.1143,-4.1141,-4.1139,-4.1143,-4.1143,-4.1149,-4.1144,-4.1133,-4.1132,-4.1132,-4.1131,0,-4.1037,-4.1032,-4.1072,-4.1077,-4.1079,-4.1107,-4.1111,-4.1133,-4.1129,-4.1159,-4.1165,-4.116,-4.1183,-4.1175,-4.1199,-4.1194,-4.1239,-4.1231,-4.1236,-4.1234,-4.1267,-4.1263,-4.1376,-4.139,-4.1288,-4.1289,-4.129,0,-4.1089,-4.1116,-4.1123,-4.1137,-4.1143,-4.1167,-4.1179,-4.1167,-4.1181,-4.1194,-4.1214,-4.1235,-4.1252,-4.1289,-4.1287,-4.1306,-4.1297,-4.1336,-4.13,-4.1303,-4.1297,-4.1295,-4.1297,-4.1343,-4.1344,-4.1345,-4.1345,0,-4.118,-4.1176,-4.1196,-4.1214,-4.123,-4.1244,-4.1256,-4.1269,-4.1257,-4.1274,-4.1297,-4.131,-4.1335,-4.1356,-4.1373,-4.1376,-4.1359,-4.1357,-4.1365,-4.1369,-4.1371,-4.137,-4.1255,-4.1354,-4.1353,-4.1353,-4.1352,-4.1352,-4.1247,-4.127,-4.1278,-4.1301,-4.1309,-4.132,-4.1341,-4.134,-4.136,-4.1379,-4.1371,-4.1398,-4.1405,-4.1426,-4.1431,-4.1452,-4.1437,-4.1449,-4.1452,-4.1455,-4.1459,-4.1368,-4.1455,-4.1454,-4.1454,-4.1454,-4.1454,0,-4.1337,-4.1341,-4.1362,-4.1379,-4.1397,-4.138,-4.1392,-4.1407,-4.1431,-4.144,-4.1457,-4.1483,-4.1503,-4.1503,-4.1521,-4.1537,-4.153,-4.1542,-4.1541,-4.1542,-4.1472,-4.1462,-4.1548,-4.1548,-4.1548,-4.1548,-4.1548,-4.1548,-4.1386,-4.1423,-4.1419,-4.146,-4.1463,-4.149,-4.1498,-4.1508,-4.1515,-4.1546,-4.1563,-4.1562,-4.1567,-4.1586,-4.1603,-4.1602,-4.161,-4.1625,-4.1622,-4.1556,-4.1547,-4.1538,-4.1529,-4.1627,-4.1627,-4.169,-4.169,-4.1691]}]]